Boulder City, NV

10:09 PM PST on January 21, 2017 (GMT -0800)
Boulder City

Weather History for KBVU - August, 2013

Change the Weather History Date:

Sunday, August 18, 2013

  Actual Average (KLAS) Record (KLAS)
Temperature  
Mean Temperature 90 °F -  
Max Temperature 102 °F 99 °F 111 °F (1992)
Min Temperature 77 °F 73 °F 60 °F (1944)
Cooling Degree Days 24    
Growing Degree Days 40 (Base 50)    
Moisture  
Dew Point 54 °F    
Average Humidity 33    
Maximum Humidity 61    
Minimum Humidity 16    
Precipitation  
Precipitation 0.00 in - - ()
Sea Level Pressure  
Sea Level Pressure 29.97 in    
Wind  
Wind Speed 8 mph (NE)    
Max Wind Speed 24 mph    
Max Gust Speed 31 mph    
Visibility 10 miles    
Events Thunderstorm    
Averages and records for this station are not official NWS values.
T = Trace of Precipitation, MM = Missing Value Source: NWS Daily Summary

Daily Weather History Graph

Daily Weather History Graph

Search for Another Location

Airport or City:

Trip Planner

Search our weather history database for the weather conditions in past years. The results will help you decide how hot, cold, wet, or windy it might be!

Date:

Astronomy

Aug. 18, 2013 Rise Set
Actual Time 6:00 AM PDT 7:25 PM PDT
Civil Twilight 5:33 AM PDT 7:52 PM PDT
Nautical Twilight 5:01 AM PDT 8:24 PM PDT
Astronomical Twilight 4:27 AM PDT 8:57 PM PDT
Moon 5:32 PM PDT (8/18) 3:17 AM PDT (8/18)
Length of Visible Light 14h 18m
Length of Day
13h 24m
Waxing Gibbous, 93% of the Moon is Illuminated
Aug 18
Waxing Gibbous
Aug 20
Full
Aug 28
Last Quarter
Sep 5
New
Sep 12
First Quarter

Hourly Weather History & Observations

Time (PDT) Temp. Heat Index Dew Point Humidity Pressure Visibility Wind Dir Wind Speed Gust Speed Precip Events Conditions
12:15 AM 86.0 °F 84.2 °F 53.6 °F 33% 29.92 in 10.0 mi East 5.8 mph - N/A   Clear
12:35 AM 82.4 °F 81.7 °F 55.4 °F 39% 29.93 in 10.0 mi NNE 11.5 mph - N/A   Clear
12:55 AM 86.0 °F - 51.8 °F 31% 29.93 in 10.0 mi NE 5.8 mph - N/A   Clear
1:15 AM 84.2 °F 83.0 °F 55.4 °F 37% 29.93 in 10.0 mi NNE 10.4 mph - N/A   Partly Cloudy
1:35 AM 86.0 °F 84.2 °F 53.6 °F 33% 29.92 in 10.0 mi NNE 8.1 mph - N/A   Partly Cloudy
1:55 AM 84.2 °F 82.8 °F 53.6 °F 35% 29.92 in 10.0 mi NNE 9.2 mph - N/A   Clear
2:15 AM 86.0 °F 84.2 °F 53.6 °F 33% 29.93 in 10.0 mi NE 8.1 mph - N/A   Clear
2:35 AM 84.2 °F 82.8 °F 53.6 °F 35% 29.93 in 10.0 mi NE 8.1 mph - N/A   Clear
2:55 AM 84.2 °F 82.8 °F 53.6 °F 35% 29.93 in 10.0 mi NE 9.2 mph - N/A   Clear
3:15 AM 84.2 °F 82.8 °F 53.6 °F 35% 29.93 in 10.0 mi East 5.8 mph - N/A   Clear
3:35 AM 82.4 °F 81.7 °F 55.4 °F 39% 29.94 in 10.0 mi East 4.6 mph - N/A   Clear
3:55 AM 82.4 °F 81.4 °F 53.6 °F 37% 29.95 in 10.0 mi East 4.6 mph - N/A   Clear
4:15 AM 80.6 °F 80.5 °F 55.4 °F 42% 29.94 in 10.0 mi NE 8.1 mph - N/A   Clear
4:35 AM 84.2 °F 82.8 °F 53.6 °F 35% 29.94 in 10.0 mi East 6.9 mph - N/A   Clear
4:55 AM 84.2 °F - 51.8 °F 33% 29.95 in 10.0 mi East 9.2 mph - N/A   Clear
5:15 AM 84.2 °F 82.8 °F 53.6 °F 35% 29.95 in 10.0 mi ESE 5.8 mph - N/A   Clear
5:35 AM 80.6 °F 80.3 °F 53.6 °F 39% 29.96 in 10.0 mi Calm Calm - N/A   Clear
5:55 AM 80.6 °F 80.5 °F 55.4 °F 42% 29.97 in 10.0 mi Calm Calm - N/A   Clear
6:15 AM 80.6 °F 80.5 °F 55.4 °F 42% 29.97 in 10.0 mi NE 3.5 mph - N/A   Clear
6:35 AM 80.6 °F 80.8 °F 57.2 °F 45% 29.98 in 10.0 mi NE 4.6 mph - N/A   Clear
6:55 AM 82.4 °F 81.7 °F 55.4 °F 39% 29.99 in 10.0 mi NE 4.6 mph - N/A   Clear
7:15 AM 84.2 °F 83.0 °F 55.4 °F 37% 29.99 in 10.0 mi NNE 3.5 mph - N/A   Clear
7:35 AM 86.0 °F 84.2 °F 53.6 °F 33% 30.00 in 10.0 mi Calm Calm - N/A   Clear
7:55 AM 87.8 °F 85.7 °F 53.6 °F 31% 30.00 in 10.0 mi ENE 4.6 mph - N/A   Clear
8:15 AM 89.6 °F 87.3 °F 53.6 °F 29% 30.00 in 10.0 mi East 6.9 mph - N/A   Clear
8:35 AM 89.6 °F 87.3 °F 53.6 °F 29% 30.00 in 10.0 mi ESE 6.9 mph - N/A   Clear
8:55 AM 89.6 °F 87.3 °F 53.6 °F 29% 30.00 in 10.0 mi East 6.9 mph - N/A   Clear
9:15 AM 89.6 °F 87.3 °F 53.6 °F 29% 30.01 in 10.0 mi East 6.9 mph - N/A   Clear
9:35 AM 91.4 °F 89.1 °F 53.6 °F 28% 30.01 in 10.0 mi ESE 4.6 mph - N/A   Clear
9:55 AM 91.4 °F - 51.8 °F 26% 30.01 in 10.0 mi East 5.8 mph - N/A   Clear
10:15 AM 93.2 °F - 51.8 °F 24% 30.01 in 10.0 mi SE 3.5 mph - N/A   Clear
10:35 AM 93.2 °F - 50.0 °F 23% 30.00 in 10.0 mi Calm Calm - N/A   Clear
10:55 AM 95.0 °F - 50.0 °F 22% 30.00 in 10.0 mi ESE 5.8 mph - N/A   Clear
11:15 AM 95.0 °F - 50.0 °F 22% 29.99 in 10.0 mi ESE 4.6 mph - N/A   Clear
11:35 AM 95.0 °F - 50.0 °F 22% 29.99 in 10.0 mi East 5.8 mph - N/A   Clear
11:55 AM 98.6 °F - 50.0 °F 19% 29.98 in 10.0 mi ESE 4.6 mph - N/A   Clear
12:15 PM 98.6 °F - 50.0 °F 19% 29.97 in 10.0 mi East 6.9 mph - N/A   Clear
12:35 PM 98.6 °F - 50.0 °F 19% 29.96 in 10.0 mi NE 8.1 mph - N/A   Clear
12:55 PM 100.4 °F - 50.0 °F 18% 29.95 in 10.0 mi East 5.8 mph - N/A   Clear
1:15 PM 100.4 °F - 48.2 °F 17% 29.94 in 10.0 mi ENE 6.9 mph - N/A   Clear
1:35 PM 100.4 °F - 48.2 °F 17% 29.92 in 10.0 mi East 5.8 mph - N/A   Clear
1:55 PM 100.4 °F - 48.2 °F 17% 29.91 in 10.0 mi East 4.6 mph - N/A   Clear
2:15 PM 102.2 °F - 48.2 °F 16% 29.90 in 10.0 mi ENE 5.8 mph - N/A   Clear
2:35 PM 102.2 °F - 48.2 °F 16% 29.89 in 10.0 mi South 8.1 mph - N/A   Clear
2:55 PM 100.4 °F - 48.2 °F 17% 29.88 in 10.0 mi East 8.1 mph - N/A   Clear
3:15 PM 100.4 °F - 46.4 °F 16% 29.88 in 10.0 mi Calm Calm - N/A Thunderstorm Clear
3:35 PM 100.4 °F - 48.2 °F 17% 29.88 in 10.0 mi South 11.5 mph 20.7 mph N/A Thunderstorm Clear
3:55 PM 96.8 °F - 51.8 °F 22% 29.88 in 10.0 mi WNW 19.6 mph - N/A Thunderstorm Partly Cloudy
4:15 PM 95.0 °F 92.7 °F 53.6 °F 25% 29.87 in 10.0 mi NW 16.1 mph - N/A Thunderstorm Thunderstorm
4:35 PM 91.4 °F 89.4 °F 55.4 °F 29% 29.92 in 10.0 mi NNW 15.0 mph - N/A Thunderstorm Partly Cloudy
4:55 PM 91.4 °F 89.4 °F 55.4 °F 29% 29.94 in 10.0 mi NE 6.9 mph - N/A Thunderstorm Partly Cloudy
5:15 PM 91.4 °F 90.7 °F 59.0 °F 34% 29.95 in 10.0 mi NE 12.7 mph - N/A Thunderstorm Scattered Clouds
5:35 PM 86.0 °F 84.9 °F 57.2 °F 37% 29.95 in 10.0 mi NNE 11.5 mph - N/A   Partly Cloudy
5:55 PM 91.4 °F 89.1 °F 53.6 °F 28% 29.95 in 10.0 mi NNW 15.0 mph - N/A   Partly Cloudy
6:15 PM 89.6 °F 87.7 °F 55.4 °F 31% 29.95 in 10.0 mi NNW 13.8 mph - N/A   Partly Cloudy
6:35 PM 87.8 °F 86.1 °F 55.4 °F 33% 29.94 in 10.0 mi NNW 13.8 mph 19.6 mph N/A   Clear
6:55 PM 87.8 °F 86.1 °F 55.4 °F 33% 29.95 in 10.0 mi NNW 12.7 mph - N/A   Scattered Clouds
7:15 PM 84.2 °F 83.8 °F 59.0 °F 42% 29.99 in 10.0 mi NNW 4.6 mph 25.3 mph N/A Thunderstorm Mostly Cloudy
7:35 PM 84.2 °F 83.8 °F 59.0 °F 42% 30.02 in 10.0 mi WNW 10.4 mph - N/A Thunderstorm Thunderstorm
7:55 PM 82.4 °F 82.5 °F 59.0 °F 45% 30.02 in 10.0 mi West 15.0 mph 23.0 mph N/A Thunderstorm Mostly Cloudy
8:15 PM 80.6 °F 81.1 °F 59.0 °F 48% 30.01 in 10.0 mi NW 24.2 mph 28.8 mph N/A Thunderstorm Mostly Cloudy
8:35 PM 78.8 °F - 59.0 °F 51% 30.00 in 10.0 mi NNW 23.0 mph 31.1 mph N/A   Mostly Cloudy
8:55 PM 78.8 °F - 59.0 °F 51% 29.99 in 10.0 mi NNW 23.0 mph 31.1 mph N/A Thunderstorm Scattered Clouds
9:15 PM 78.8 °F - 60.8 °F 54% 30.00 in 10.0 mi NW 23.0 mph 27.6 mph N/A Thunderstorm Clear
9:35 PM 78.8 °F - 59.0 °F 51% 30.05 in 10.0 mi WNW 18.4 mph 24.2 mph N/A Thunderstorm Scattered Clouds
9:55 PM 77.0 °F - 62.6 °F 61% 30.03 in 10.0 mi NW 20.7 mph 27.6 mph N/A Thunderstorm Mostly Cloudy
10:15 PM 77.0 °F - 59.0 °F 54% 30.02 in 10.0 mi NNW 17.3 mph 24.2 mph N/A Thunderstorm Mostly Cloudy
10:35 PM 77.0 °F - 59.0 °F 54% 30.05 in 10.0 mi NNW 9.2 mph - N/A Thunderstorm Mostly Cloudy
10:55 PM 78.8 °F - 59.0 °F 51% 30.04 in 10.0 mi NW 15.0 mph 23.0 mph N/A Thunderstorm Mostly Cloudy
11:15 PM 80.6 °F 80.8 °F 57.2 °F 45% 30.05 in 10.0 mi NNW 8.1 mph - N/A   Mostly Cloudy
11:35 PM 80.6 °F 81.1 °F 59.0 °F 48% 30.07 in 10.0 mi ESE 8.1 mph - N/A   Overcast
11:55 PM 80.6 °F 80.8 °F 57.2 °F 45% 30.09 in 10.0 mi Calm Calm - N/A   Mostly Cloudy